Location: Catenanuova
(37.5690°N, 14.6870°E)
Time: 21:22:15
(UTC+02:00)

BlueWalker 3 - Pass Details

Date: 21 May 2025
Orbit: 460 x 472 km, 53.2° (Epoch: 16 June)

Event Time Altitude Azimuth Distance (km) Brightness Sun altitude
Rises 22:02:50 0° 319° (NW) 2,491 7.2 -18.9°
Reaches altitude 10° 22:05:09 10° 330° (NNW) 1,616 5.7 -19.2°
Maximum altitude 22:08:26 32° 35° (NE) 827 3.1 -19.7°
Enters shadow 22:09:12 29° 60° (ENE) 885 3.0 -19.8°
